When you browse on this site, cookies collect data to enhance your experience and personalize the content and advertising you see.
Visit our Privacy Policy to learn more. By continuing to use the site, you agree to this use of cookies and data.
  • In Österreich
  • Länderverzeichnis
  • Für 7 Tage
  • Wassertemperatur
  • Wetterkarte
  • News
  • Widgets
  • user-avatar
    Anmelden

    Stündliche Wetter Chyzhykove

    Heute, 20 August, Dienstag

    Zeit Temperatur Niederschläge Wind Luftdruck Luftfeuchtigkeit
    00:00 +19°C° 0 mm 1 m/S 750 mmHg 73%
    01:00 +19°C° 0 mm 1 m/S 750 mmHg 75%
    02:00 +18°C° 0 mm 1 m/S 750 mmHg 76%
    03:00 +18°C° 0 mm 1 m/S 751 mmHg 78%
    04:00 +18°C° 0 mm 1 m/S 751 mmHg 80%
    05:00 +16°C° 0 mm 1 m/S 751 mmHg 82%
    06:00 +20°C° 0 mm 1 m/S 751 mmHg 75%
    07:00 +20°C° 0 mm 0 m/S 752 mmHg 68%
    08:00 +22°C° 0 mm 0 m/S 752 mmHg 60%
    09:00 +24°C° 0 mm 0 m/S 752 mmHg 55%
    10:00 +27°C° 0 mm 1 m/S 752 mmHg 50%
    11:00 +29°C° 0 mm 1 m/S 752 mmHg 44%
    12:00 +29°C° 0 mm 1 m/S 752 mmHg 41%
    13:00 +30°C° 0 mm 1 m/S 752 mmHg 38%
    14:00 +30°C° 0 mm 1 m/S 752 mmHg 35%
    15:00 +30°C° 0 mm 1 m/S 752 mmHg 37%
    16:00 +30°C° 0 mm 1 m/S 752 mmHg 39%
    17:00 +30°C° 0 mm 1 m/S 751 mmHg 42%
    18:00 +27°C° 0 mm 2 m/S 752 mmHg 47%
    19:00 +25°C° 0 mm 2 m/S 752 mmHg 51%
    20:00 +23°C° 0 mm 2 m/S 752 mmHg 56%
    21:00 +21°C° 0 mm 2 m/S 752 mmHg 58%
    22:00 +21°C° 0 mm 2 m/S 752 mmHg 59%
    23:00 +20°C° 0 mm 2 m/S 752 mmHg 61%

    Morgen, 21 August, Mittwoch

    Zeit Temperatur Niederschläge Wind Luftdruck Luftfeuchtigkeit
    00:00 +20°C° 0 mm 2 m/S 752 mmHg 63%
    01:00 +20°C° 0 mm 1 m/S 752 mmHg 65%
    02:00 +20°C° 0 mm 1 m/S 752 mmHg 67%
    03:00 +20°C° 0 mm 1 m/S 752 mmHg 69%
    04:00 +19°C° 0 mm 1 m/S 751 mmHg 71%
    05:00 +19°C° 0 mm 1 m/S 751 mmHg 72%
    06:00 +21°C° 0 mm 1 m/S 751 mmHg 67%
    07:00 +23°C° 0 mm 2 m/S 752 mmHg 61%
    08:00 +24°C° 0 mm 2 m/S 752 mmHg 56%
    09:00 +26°C° 0 mm 2 m/S 752 mmHg 52%
    10:00 +27°C° 0 mm 2 m/S 752 mmHg 48%
    11:00 +29°C° 0 mm 3 m/S 752 mmHg 43%
    12:00 +29°C° 0 mm 3 m/S 751 mmHg 41%
    13:00 +30°C° 0 mm 3 m/S 751 mmHg 39%
    14:00 +31°C° 0 mm 3 m/S 751 mmHg 37%
    15:00 +30°C° 0 mm 3 m/S 750 mmHg 41%
    16:00 +30°C° 0 mm 3 m/S 750 mmHg 44%
    17:00 +29°C° 0 mm 3 m/S 750 mmHg 47%
    18:00 +27°C° 0 mm 3 m/S 750 mmHg 53%
    19:00 +25°C° 0 mm 3 m/S 750 mmHg 59%
    20:00 +22°C° 0 mm 3 m/S 750 mmHg 66%
    21:00 +21°C° 0 mm 2 m/S 750 mmHg 68%
    22:00 +20°C° 0 mm 2 m/S 750 mmHg 71%
    23:00 +20°C° 0 mm 2 m/S 750 mmHg 74%

    übermorgen, 22 August, Donnerstag

    Zeit Temperatur Niederschläge Wind Luftdruck Luftfeuchtigkeit
    00:00 +19°C° 0 mm 2 m/S 750 mmHg 76%
    01:00 +19°C° 0 mm 2 m/S 750 mmHg 78%
    02:00 +19°C° 0 mm 1 m/S 750 mmHg 80%
    03:00 +19°C° 0 mm 1 m/S 750 mmHg 81%
    04:00 +19°C° 0 mm 1 m/S 749 mmHg 83%
    05:00 +18°C° 0 mm 1 m/S 749 mmHg 85%
    06:00 +20°C° 0 mm 1 m/S 750 mmHg 77%
    07:00 +23°C° 0 mm 2 m/S 750 mmHg 70%
    08:00 +25°C° 0 mm 2 m/S 750 mmHg 63%
    09:00 +26°C° 0 mm 2 m/S 750 mmHg 58%
    10:00 +27°C° 0 mm 2 m/S 750 mmHg 53%
    11:00 +29°C° 0 mm 3 m/S 750 mmHg 48%
    12:00 +29°C° 0 mm 3 m/S 750 mmHg 46%
    13:00 +30°C° 0 mm 3 m/S 750 mmHg 44%
    14:00 +31°C° 0 mm 3 m/S 749 mmHg 42%
    15:00 +30°C° 0 mm 3 m/S 749 mmHg 45%
    16:00 +30°C° 0 mm 3 m/S 749 mmHg 47%
    17:00 +29°C° 0 mm 3 m/S 749 mmHg 50%
    18:00 +28°C° 0 mm 3 m/S 750 mmHg 58%
    19:00 +26°C° 0 mm 3 m/S 750 mmHg 65%
    20:00 +24°C° 0 mm 2 m/S 750 mmHg 73%
    21:00 +22°C° 0 mm 3 m/S 750 mmHg 79%
    22:00 +21°C° 0 mm 3 m/S 750 mmHg 85%
    23:00 +20°C° 0 mm 3 m/S 750 mmHg 92%

    23 August, Freitag

    Zeit Temperatur Niederschläge Wind Luftdruck Luftfeuchtigkeit
    00:00 +20°C° 0 mm 3 m/S 750 mmHg 94%
    01:00 +19°C° 0 mm 3 m/S 750 mmHg 95%
    02:00 +19°C° 0 mm 3 m/S 750 mmHg 97%
    03:00 +19°C° 0 mm 3 m/S 750 mmHg 97%
    04:00 +19°C° 0 mm 3 m/S 750 mmHg 96%
    05:00 +18°C° 0 mm 3 m/S 751 mmHg 96%
    06:00 +19°C° 0 mm 3 m/S 751 mmHg 93%
    07:00 +19°C° 0 mm 4 m/S 751 mmHg 90%
    08:00 +20°C° 0 mm 4 m/S 751 mmHg 87%
    09:00 +21°C° 0 mm 4 m/S 751 mmHg 84%
    10:00 +21°C° 0 mm 4 m/S 751 mmHg 81%
    11:00 +22°C° 0 mm 4 m/S 752 mmHg 77%
    12:00 +22°C° 0 mm 5 m/S 752 mmHg 75%
    13:00 +23°C° 0 mm 5 m/S 752 mmHg 73%
    14:00 +23°C° 0 mm 5 m/S 752 mmHg 72%
    15:00 +23°C° 0 mm 5 m/S 752 mmHg 70%
    16:00 +23°C° 0 mm 5 m/S 752 mmHg 68%
    17:00 +23°C° 0 mm 5 m/S 752 mmHg 67%
    18:00 +22°C° 0 mm 4 m/S 752 mmHg 72%
    19:00 +21°C° 0 mm 4 m/S 752 mmHg 77%
    20:00 +19°C° 0 mm 3 m/S 752 mmHg 82%
    21:00 +18°C° 0 mm 3 m/S 752 mmHg 83%
    22:00 +17°C° 0 mm 3 m/S 753 mmHg 84%
    23:00 +17°C° 0 mm 4 m/S 753 mmHg 85%

    24 August, Samstag

    Zeit Temperatur Niederschläge Wind Luftdruck Luftfeuchtigkeit
    00:00 +16°C° 0 mm 3 m/S 753 mmHg 87%
    01:00 +16°C° 0 mm 3 m/S 753 mmHg 89%
    02:00 +14°C° 0 mm 3 m/S 753 mmHg 91%
    03:00 +14°C° 0 mm 3 m/S 753 mmHg 92%
    04:00 +13°C° 0 mm 3 m/S 753 mmHg 93%
    05:00 +13°C° 0 mm 3 m/S 753 mmHg 93%
    06:00 +15°C° 0 mm 4 m/S 754 mmHg 84%
    07:00 +18°C° 0 mm 4 m/S 754 mmHg 74%
    08:00 +20°C° 0 mm 4 m/S 754 mmHg 64%
    09:00 +21°C° 0 mm 4 m/S 754 mmHg 57%
    10:00 +23°C° 0 mm 4 m/S 754 mmHg 50%
    11:00 +25°C° 0 mm 4 m/S 754 mmHg 43%
    12:00 +26°C° 0 mm 4 m/S 754 mmHg 41%
    13:00 +26°C° 0 mm 4 m/S 754 mmHg 39%
    14:00 +27°C° 0 mm 4 m/S 754 mmHg 38%
    15:00 +26°C° 0 mm 4 m/S 753 mmHg 40%
    16:00 +26°C° 0 mm 4 m/S 753 mmHg 43%
    17:00 +25°C° 0 mm 4 m/S 753 mmHg 45%
    18:00 +22°C° 0 mm 3 m/S 753 mmHg 52%
    19:00 +20°C° 0 mm 3 m/S 753 mmHg 58%
    20:00 +18°C° 0 mm 3 m/S 753 mmHg 65%
    21:00 +17°C° 0 mm 2 m/S 753 mmHg 67%
    22:00 +17°C° 0 mm 2 m/S 754 mmHg 70%
    23:00 +16°C° 0 mm 2 m/S 754 mmHg 72%

    25 August, Sonntag

    Zeit Temperatur Niederschläge Wind Luftdruck Luftfeuchtigkeit
    00:00 +15°C° 0 mm 2 m/S 754 mmHg 74%
    01:00 +15°C° 0 mm 2 m/S 754 mmHg 76%
    02:00 +15°C° 0 mm 2 m/S 754 mmHg 78%
    03:00 +14°C° 0 mm 2 m/S 753 mmHg 79%
    04:00 +14°C° 0 mm 2 m/S 753 mmHg 81%
    05:00 +14°C° 0 mm 2 m/S 753 mmHg 82%
    06:00 +16°C° 0 mm 2 m/S 753 mmHg 74%
    07:00 +18°C° 0 mm 2 m/S 753 mmHg 66%
    08:00 +20°C° 0 mm 2 m/S 753 mmHg 58%
    09:00 +23°C° 0 mm 2 m/S 753 mmHg 53%
    10:00 +24°C° 0 mm 2 m/S 753 mmHg 47%
    11:00 +26°C° 0 mm 2 m/S 753 mmHg 41%
    12:00 +26°C° 0 mm 2 m/S 753 mmHg 39%
    13:00 +27°C° 0 mm 1 m/S 752 mmHg 36%
    14:00 +28°C° 0 mm 1 m/S 752 mmHg 33%
    15:00 +27°C° 0 mm 1 m/S 752 mmHg 36%
    16:00 +27°C° 0 mm 1 m/S 752 mmHg 38%
    17:00 +27°C° 0 mm 1 m/S 751 mmHg 41%
    18:00 +24°C° 0 mm 2 m/S 751 mmHg 46%
    19:00 +21°C° 0 mm 2 m/S 751 mmHg 51%
    20:00 +19°C° 0 mm 3 m/S 751 mmHg 56%
    21:00 +18°C° 0 mm 2 m/S 751 mmHg 58%
    22:00 +18°C° 0 mm 2 m/S 751 mmHg 60%
    23:00 +17°C° 0 mm 2 m/S 751 mmHg 61%
    Mehr zeigen